Weather History for Okeechobee, FL

Change the Weather History Date:

Wednesday, November 14, 2012

  Actual Average Record
Temperature  
Mean Temperature 69 °F -  
Max Temperature 78 °F 78 °F 90 °F (1986)
Min Temperature 60 °F 57 °F 40 °F (1968)
Cooling Degree Days 4    
Growing Degree Days 19 (Base 50)    
Moisture  
Dew Point 63 °F    
Average Humidity 89    
Maximum Humidity 100    
Minimum Humidity 57    
Precipitation  
Precipitation 0.00 in - - ()
Sea Level Pressure  
Sea Level Pressure 30.12 in    
Wind  
Wind Speed 3 mph (North)    
Max Wind Speed 9 mph    
Max Gust Speed -    
Visibility 10 miles    
Events Rain , Thunderstorm    
Averages and records for this station are not official NWS values.
T = Trace of Precipitation, MM = Missing Value Source: NWS Daily Summary

Daily Weather History Graph

Daily Weather History Graph

Search for Another Location

Airport:

Trip Planner

Search our weather history database for the weather conditions in past years. The results will help you decide how hot, cold, wet, or windy it might be!

Date:

Astronomy

Nov. 14, 2012 Rise Set
Actual Time 6:43 AM EST 5:32 PM EST
Civil Twilight 6:18 AM EST 5:56 PM EST
Nautical Twilight 5:50 AM EST 6:24 PM EST
Astronomical Twilight 5:22 AM EST 6:52 PM EST
Moon 7:26 AM EST (11/14) 6:24 PM EST (11/14)
Length of Visible Light 11h 38m
Length of Day
10h 48m
New Moon, 1% of the Moon is Illuminated
Nov 14
New Moon
Nov 20
First Quarter
Nov 28
Full
Dec 6
Last Quarter
Dec 13
New

Hourly Weather History & Observations

Time (EST) Temp. Dew Point Humidity Pressure Visibility Wind Dir Wind Speed Gust Speed Precip Events Conditions
12:15 AM 62.6 °F 62.6 °F 100% 30.12 in 7.0 mi Calm Calm - N/A   Clear
12:35 AM 60.8 °F 60.8 °F 100% 30.12 in 7.0 mi Calm Calm - N/A   Clear
12:55 AM 60.8 °F 60.8 °F 100% 30.12 in 7.0 mi Calm Calm - N/A   Clear
1:15 AM 60.8 °F 60.8 °F 100% 30.12 in 7.0 mi Calm Calm - N/A   Mostly Cloudy
1:35 AM 62.6 °F 62.6 °F 100% 30.11 in 7.0 mi North 3.5 mph - N/A   Overcast
1:55 AM 62.6 °F 62.6 °F 100% 30.11 in 7.0 mi NNW 3.5 mph - N/A Rain Rain
2:15 AM 64.4 °F 62.6 °F 94% 30.10 in 10.0 mi NNW 6.9 mph - N/A   Overcast
2:35 AM 64.4 °F 62.6 °F 94% 30.10 in 10.0 mi Calm Calm - N/A   Overcast
2:55 AM 64.4 °F 62.6 °F 94% 30.09 in 10.0 mi North 3.5 mph - N/A   Overcast
3:15 AM 62.6 °F 62.6 °F 100% 30.09 in 10.0 mi NNE 3.5 mph - N/A   Overcast
3:35 AM 62.6 °F 62.6 °F 100% 30.09 in 10.0 mi Calm Calm - N/A   Mostly Cloudy
3:55 AM 62.6 °F 60.8 °F 94% 30.09 in 10.0 mi North 4.6 mph - N/A   Scattered Clouds
4:15 AM 62.6 °F 62.6 °F 100% 30.09 in 10.0 mi North 3.5 mph - N/A   Clear
4:35 AM 62.6 °F 62.6 °F 100% 30.09 in 10.0 mi NE 3.5 mph - N/A   Scattered Clouds
4:55 AM 64.4 °F 62.6 °F 94% 30.09 in 10.0 mi Calm Calm - N/A   Mostly Cloudy
5:15 AM 64.4 °F 62.6 °F 94% 30.09 in 10.0 mi Calm Calm - N/A   Overcast
5:35 AM 62.6 °F 62.6 °F 100% 30.10 in 10.0 mi Calm Calm - N/A   Mostly Cloudy
5:55 AM 62.6 °F 62.6 °F 100% 30.10 in 10.0 mi NNE 3.5 mph - N/A   Scattered Clouds
6:15 AM 62.6 °F 62.6 °F 100% 30.12 in 10.0 mi Calm Calm - N/A   Scattered Clouds
6:35 AM 62.6 °F 62.6 °F 100% 30.12 in 10.0 mi North 5.8 mph - N/A   Scattered Clouds
6:55 AM 64.4 °F 62.6 °F 94% 30.12 in 10.0 mi NNW 4.6 mph - N/A   Mostly Cloudy
7:15 AM 62.6 °F 62.6 °F 100% 30.13 in 10.0 mi NNW 3.5 mph - N/A   Mostly Cloudy
7:35 AM 62.6 °F 62.6 °F 100% 30.13 in 10.0 mi Calm Calm - N/A   Scattered Clouds
7:55 AM 64.4 °F 62.6 °F 94% 30.14 in 10.0 mi Calm Calm - N/A   Scattered Clouds
8:15 AM 64.4 °F 62.6 °F 94% 30.15 in 10.0 mi Calm Calm - N/A   Mostly Cloudy
8:35 AM 66.2 °F 62.6 °F 88% 30.16 in 10.0 mi NNW 3.5 mph - N/A   Overcast
9:15 AM 68.0 °F 64.4 °F 88% 30.16 in 10.0 mi NNW 6.9 mph - N/A   Mostly Cloudy
9:35 AM 68.0 °F 64.4 °F 88% 30.16 in 10.0 mi North 5.8 mph - N/A   Scattered Clouds
9:55 AM 69.8 °F 66.2 °F 88% 30.16 in 10.0 mi North 6.9 mph - N/A   Clear
10:15 AM 71.6 °F 66.2 °F 83% 30.15 in 10.0 mi North 5.8 mph - N/A   Clear
10:35 AM 71.6 °F 68.0 °F 88% 30.15 in 10.0 mi North 5.8 mph - N/A   Clear
10:55 AM 71.6 °F 66.2 °F 83% 30.15 in 10.0 mi North 8.1 mph - N/A   Clear
11:15 AM 71.6 °F 66.2 °F 83% 30.15 in 10.0 mi North 4.6 mph - N/A   Clear
11:35 AM 75.2 °F 68.0 °F 78% 30.15 in 10.0 mi North 9.2 mph - N/A   Clear
11:55 AM 77.0 °F 68.0 °F 74% 30.14 in 10.0 mi NNW 8.1 mph - N/A   Clear
12:15 PM 77.0 °F 64.4 °F 65% 30.14 in 10.0 mi NNW 5.8 mph - N/A   Scattered Clouds
12:35 PM 77.0 °F 62.6 °F 61% 30.12 in 10.0 mi North 5.8 mph - N/A   Scattered Clouds
12:55 PM 77.0 °F 62.6 °F 61% 30.11 in 10.0 mi NNE 6.9 mph - N/A   Scattered Clouds
1:15 PM 78.8 °F 62.6 °F 57% 30.09 in 10.0 mi NNE 5.8 mph - N/A   Clear
1:35 PM 77.0 °F 62.6 °F 61% 30.09 in 10.0 mi North 5.8 mph - N/A Thunderstorm Scattered Clouds
1:55 PM 77.0 °F 62.6 °F 61% 30.09 in 10.0 mi NNE 8.1 mph - N/A   Scattered Clouds
2:15 PM 78.8 °F 64.4 °F 61% 30.09 in 10.0 mi NNE 9.2 mph - N/A   Mostly Cloudy
2:35 PM 77.0 °F 64.4 °F 65% 30.09 in 10.0 mi North 8.1 mph - N/A   Scattered Clouds
2:55 PM 78.8 °F 64.4 °F 61% 30.09 in 10.0 mi NNE 9.2 mph - N/A   Scattered Clouds
3:15 PM 73.4 °F 64.4 °F 73% 30.09 in 10.0 mi ESE 8.1 mph - N/A   Scattered Clouds
3:35 PM 73.4 °F 64.4 °F 73% 30.09 in 10.0 mi ESE 8.1 mph - N/A   Mostly Cloudy
3:55 PM 71.6 °F 64.4 °F 78% 30.10 in 10.0 mi East 4.6 mph - N/A   Mostly Cloudy
4:15 PM 71.6 °F 64.4 °F 78% 30.10 in 10.0 mi ENE 4.6 mph - N/A   Mostly Cloudy
4:35 PM 71.6 °F 64.4 °F 78% 30.10 in 10.0 mi ENE 3.5 mph - N/A   Overcast
4:55 PM 69.8 °F 64.4 °F 83% 30.09 in 10.0 mi Calm Calm - N/A   Overcast
5:15 PM 69.8 °F 64.4 °F 83% 30.09 in 10.0 mi Calm Calm - N/A   Mostly Cloudy
5:35 PM 69.8 °F 64.4 °F 83% 30.10 in 10.0 mi Calm Calm - N/A   Scattered Clouds
5:55 PM 68.0 °F 64.4 °F 88% 30.10 in 10.0 mi Calm Calm - N/A   Clear
6:15 PM 68.0 °F 64.4 °F 88% 30.11 in 10.0 mi Calm Calm - N/A   Clear
6:35 PM 66.2 °F 64.4 °F 94% 30.11 in 10.0 mi Calm Calm - N/A   Clear
6:55 PM 66.2 °F 64.4 °F 94% 30.11 in 10.0 mi Calm Calm - N/A   Clear
7:15 PM 64.4 °F 62.6 °F 94% 30.11 in 10.0 mi Calm Calm - N/A   Clear
7:35 PM 64.4 °F 62.6 °F 94% 30.12 in 10.0 mi Calm Calm - N/A   Clear
7:55 PM 64.4 °F 62.6 °F 94% 30.12 in 10.0 mi Calm Calm - N/A   Clear
8:15 PM 62.6 °F 62.6 °F 100% 30.12 in 10.0 mi Calm Calm - N/A   Clear
8:35 PM 62.6 °F 62.6 °F 100% 30.13 in 10.0 mi Calm Calm - N/A   Clear
8:55 PM 62.6 °F 62.6 °F 100% 30.13 in 7.0 mi Calm Calm - N/A   Clear
9:15 PM 62.6 °F 62.6 °F 100% 30.14 in 5.0 mi Calm Calm - N/A   Clear
9:35 PM 62.6 °F 62.6 °F 100% 30.14 in 10.0 mi WNW 4.6 mph - N/A   Clear
9:55 PM 62.6 °F 62.6 °F 100% 30.14 in 10.0 mi Calm Calm - N/A   Scattered Clouds
10:15 PM 62.6 °F 62.6 °F 100% 30.14 in 7.0 mi NW 4.6 mph - N/A   Mostly Cloudy
10:35 PM 64.4 °F 62.6 °F 94% 30.14 in 10.0 mi NW 5.8 mph - N/A   Overcast
10:55 PM 64.4 °F 64.4 °F 100% 30.14 in 10.0 mi NNW 4.6 mph - N/A   Overcast
11:15 PM 64.4 °F 64.4 °F 100% 30.14 in 10.0 mi NNW 4.6 mph - N/A   Overcast
11:35 PM 64.4 °F 62.6 °F 94% 30.13 in 7.0 mi Calm Calm - N/A   Mostly Cloudy
11:55 PM 64.4 °F 62.6 °F 94% 30.13 in 7.0 mi Calm Calm - N/A   Mostly Cloudy